Hourly Data Report for July 04, 2022

ATIKOKAN (AUT)
ONTARIO
Current Station Operator: ECCC - MSC

48°45'40.000" N
91°37'41.000" W
389.30 m
6020LPQ
71747
WCH

Download Data

Hourly Data (July 2022)
Hourly Data Report for July 4, 2022
TIME
LST
Temp Definition
°C
Dew Point Definition
°C
Rel Hum Definition
%
Precip. Amount Definition
mm

Wind Dir Definition
10's deg

Wind Spd Definition
km/h
Visibility Definition
km
Stn Press Definition
kPa
Hmdx Definition


Wind Chill Definition


Weather Definition


00:00 12.0 11.5 97 0.0 8 1   97.08     LegendNANA
01:00 11.6 11.3 98 0.0 6 3   97.05     LegendNANA
02:00 11.7 11.2 97 0.0 6 4   97.02     LegendNANA
03:00 11.0 10.5 97 0.0 5 2   97.03     LegendNANA
04:00 11.1 10.8 98 0.0 6 4   97.01     LegendNANA
05:00 11.5 10.5 93 0.0 5 3   96.98     LegendNANA
06:00 13.2 11.4 89 0.0 7 4   96.96     LegendNANA
07:00 15.0 11.7 81 0.0 10 3   96.90     LegendNANA
08:00 17.3 12.9 75 0.0 8 4   96.85     LegendNANA
09:00 19.6 14.7 73 0.0 11 7   96.80     LegendNANA
10:00 19.7 14.8 73 0.0 12 8   96.80     LegendNANA
11:00 19.8 15.3 75 0.0 11 8   96.79     LegendNANA
12:00 20.6 16.6 78 0.0 11 7   96.77 26   LegendNANA
13:00 20.7 16.4 76 0.0 12 5   96.75 26   LegendNANA
14:00 19.4 16.5 83 0.0 12 6   96.74     LegendNANA
15:00 19.8 17.6 88 0.2 13 6   96.70     LegendNANA
16:00 19.0 16.8 87 0.0 12 5   96.73     LegendNANA
17:00 18.9 17.5 92 0.8 11 5   96.72     LegendNANA
18:00 18.4 17.3 93 0.1 11 7   96.69     LegendNANA
19:00 18.2 17.0 93 0.0 11 6   96.67     LegendNANA
20:00 17.8 16.6 93 0.0 11 4   96.68     LegendNANA
21:00 17.6 16.5 94 0.0 9 4   96.70     LegendNANA
22:00 17.2 16.1 94 0.0 9 3   96.66     LegendNANA
23:00 16.9 15.9 94 0.0 8 6   96.66     LegendNANA

Notes on Data Quality.

Legend

  • E = Estimated
  • M = Missing
  • NA = Not Available*
  • [empty] = Indicates an unobserved value
Date modified: